| time (UTC) | temp F | wind direction | speed knots | gust knots | rain 1hr in | rain 24hr in | rain mn in | humidity % | barometer mb |
| 20260506154612 | 47 | 282 | 4.3 | 7.0 | 0.00 | 0.07 | 0.07 | 55 | 1013.1 |
| 20260506153609 | 47 | 241 | 6.1 | 11.3 | 0.00 | 0.07 | 0.07 | 57 | 1013.1 |
| 20260506152606 | 47 | 248 | 5.2 | 9.6 | 0.00 | 0.07 | 0.07 | 61 | 1013.0 |
| 20260506151603 | 47 | 252 | 6.1 | 7.8 | 0.00 | 0.07 | 0.07 | 60 | 1013.1 |
| 20260506150600 | 47 | 261 | 4.3 | 9.6 | 0.00 | 0.07 | 0.07 | 60 | 1013.2 |
| 20260506145556 | 47 | 265 | 5.2 | 9.6 | 0.00 | 0.07 | 0.07 | 60 | 1013.3 |
| 20260506144554 | 46 | 254 | 7.0 | 9.6 | 0.00 | 0.07 | 0.07 | 61 | 1013.2 |
| 20260506143550 | 46 | 244 | 7.0 | 11.3 | 0.00 | 0.07 | 0.07 | 60 | 1013.3 |
| 20260506142547 | 46 | 277 | 4.3 | 7.0 | 0.00 | 0.07 | 0.07 | 57 | 1013.3 |
| 20260506141544 | 47 | 261 | 6.1 | 9.6 | 0.00 | 0.07 | 0.07 | 61 | 1013.4 |
| 20260506140540 | 45 | 255 | 4.3 | 9.6 | 0.00 | 0.07 | 0.07 | 60 | 1013.4 |
| 20260506135538 | 47 | 272 | 5.2 | 9.6 | 0.00 | 0.07 | 0.07 | 62 | 1013.3 |
| 20260506134554 | 46 | 280 | 4.3 | 7.0 | 0.00 | 0.07 | 0.07 | 59 | 1013.4 |
| 20260506133531 | 46 | 293 | 5.2 | 11.3 | 0.00 | 0.07 | 0.07 | 60 | 1013.5 |
| 20260506132528 | 46 | 256 | 4.3 | 7.8 | 0.00 | 0.07 | 0.07 | 58 | 1013.5 |
| 20260506131525 | 46 | 273 | 6.1 | 9.6 | 0.00 | 0.07 | 0.07 | 57 | 1013.5 |
| 20260506130522 | 45 | 270 | 6.1 | 9.6 | 0.00 | 0.07 | 0.07 | 62 | 1013.5 |
| 20260506125519 | 45 | 278 | 5.2 | 9.6 | 0.00 | 0.07 | 0.07 | 64 | 1013.5 |
| 20260506124556 | 44 | 251 | 7.0 | 9.6 | 0.00 | 0.07 | 0.07 | 67 | 1013.5 |
| 20260506123633 | 44 | 285 | 5.2 | 9.6 | 0.00 | 0.07 | 0.07 | 68 | 1013.4 |
| 20260506122610 | 44 | 232 | 6.1 | 9.6 | 0.00 | 0.07 | 0.07 | 64 | 1013.5 |
| 20260506121607 | 44 | 268 | 5.2 | 7.8 | 0.00 | 0.07 | 0.07 | 69 | 1013.4 |
| 20260506120603 | 44 | 243 | 7.0 | 11.3 | 0.00 | 0.07 | 0.07 | 72 | 1013.4 |
| 20260506115600 | 43 | 247 | 6.1 | 9.6 | 0.00 | 0.07 | 0.07 | 72 | 1013.6 |
| 20260506114557 | 43 | 244 | 7.0 | 11.3 | 0.00 | 0.07 | 0.07 | 68 | 1013.5 |
| 20260506113554 | 42 | 243 | 6.1 | 12.2 | 0.00 | 0.07 | 0.07 | 72 | 1013.4 |
| 20260506112551 | 41 | 243 | 6.1 | 9.6 | 0.00 | 0.07 | 0.07 | 79 | 1013.6 |
| 20260506111547 | 40 | 225 | 5.2 | 9.6 | 0.00 | 0.07 | 0.07 | 83 | 1013.5 |
| 20260506110624 | 40 | 222 | 8.7 | 13.0 | 0.00 | 0.07 | 0.07 | 82 | 1013.6 |
| 20260506105541 | 43 | 238 | 7.8 | 13.0 | 0.00 | 0.07 | 0.07 | 77 | 1013.5 |
| 20260506104538 | 42 | 241 | 7.0 | 9.6 | 0.00 | 0.07 | 0.07 | 78 | 1013.7 |
| 20260506103555 | 41 | 262 | 7.0 | 11.3 | 0.00 | 0.07 | 0.07 | 79 | 1013.6 |
| 20260506102531 | 41 | 245 | 7.0 | 9.6 | 0.00 | 0.07 | 0.07 | 81 | 1013.5 |
| 20260506101528 | 41 | 232 | 7.0 | 11.3 | 0.00 | 0.07 | 0.07 | 83 | 1013.7 |
| 20260506100525 | 40 | 228 | 7.8 | 11.3 | 0.00 | 0.07 | 0.07 | 85 | 1013.6 |
| 20260506095522 | 40 | 223 | 8.7 | 13.0 | 0.00 | 0.07 | 0.07 | 87 | 1013.5 |
| 20260506094519 | 40 | 218 | 9.6 | 13.9 | 0.00 | 0.07 | 0.07 | 87 | 1013.6 |
| 20260506093516 | 39 | 221 | 9.6 | 12.2 | 0.00 | 0.07 | 0.07 | 88 | 1013.5 |
| 20260506092613 | 39 | 229 | 11.3 | 13.9 | 0.00 | 0.07 | 0.07 | 87 | 1013.5 |
| 20260506091610 | 39 | 215 | 9.6 | 13.0 | 0.00 | 0.07 | 0.07 | 87 | 1013.6 |
| 20260506090607 | 40 | 210 | 10.4 | 13.0 | 0.00 | 0.07 | 0.07 | 86 | 1013.5 |
| 20260506085603 | 40 | 232 | 6.1 | 9.6 | 0.00 | 0.07 | 0.07 | 84 | 1013.6 |
| 20260506084600 | 39 | 229 | 7.0 | 9.6 | 0.00 | 0.07 | 0.07 | 86 | 1013.7 |
| 20260506083618 | 38 | 254 | 6.1 | 9.6 | 0.00 | 0.07 | 0.07 | 85 | 1013.6 |
| 20260506082614 | 41 | 263 | 7.8 | 13.9 | 0.00 | 0.07 | 0.07 | 81 | 1013.6 |
| 20260506081551 | 41 | 222 | 7.0 | 9.6 | 0.00 | 0.07 | 0.07 | 78 | 1013.5 |
| 20260506080548 | 41 | 248 | 4.3 | 9.6 | 0.00 | 0.07 | 0.07 | 79 | 1013.4 |
| 20260506072535 | 39 | 230 | 3.5 | 6.1 | 0.00 | 0.07 | 0.07 | 83 | 1013.3 |
| 20260506071532 | 39 | 244 | 4.3 | 6.1 | 0.01 | 0.07 | 0.07 | 85 | 1013.3 |
| 20260506070529 | 38 | 235 | 5.2 | 7.8 | 0.01 | 0.07 | 0.07 | 88 | 1013.3 |
| 20260506062516 | 35 | 217 | 9.6 | 12.2 | 0.02 | 0.08 | 0.07 | 90 | 1013.5 |
| 20260506061613 | 34 | 217 | 12.2 | 14.8 | 0.01 | 0.07 | 0.06 | 89 | 1013.5 |
| 20260506060610 | 35 | 225 | 10.4 | 13.9 | 0.02 | 0.07 | 0.06 | 87 | 1013.4 |
| 20260506050551 | 36 | 276 | 3.5 | 7.0 | 0.01 | 0.05 | 0.04 | 86 | 1013.4 |
| 20260506044545 | 36 | 338 | 7.0 | 9.6 | 0.02 | 0.05 | 0.04 | 86 | 1013.5 |
| 20260506043602 | 36 | 318 | 7.0 | 9.6 | 0.02 | 0.05 | 0.04 | 85 | 1013.7 |
| 20260506042538 | 36 | 0 | 0.9 | 3.5 | 0.02 | 0.04 | 0.02 | 86 | 1013.7 |
| 20260506041535 | 36 | 353 | 0.0 | 1.7 | 0.02 | 0.04 | 0.02 | 87 | 1013.6 |
| 20260506040532 | 36 | 350 | 1.7 | 3.5 | 0.02 | 0.04 | 0.02 | 87 | 1013.7 |
| 20260506035529 | 36 | 329 | 3.5 | 6.1 | 0.02 | 0.04 | 0.02 | 88 | 1013.9 |
| 20260506034526 | 36 | 240 | 4.3 | 7.0 | 0.01 | 0.02 | 0.01 | 87 | 1013.6 |
| 20260506033523 | 35 | 214 | 6.1 | 7.8 | 0.01 | 0.02 | 0.01 | 88 | 1013.5 |
| 20260506032520 | 35 | 206 | 5.2 | 7.0 | 0.00 | 0.01 | 0.00 | 89 | 1013.5 |
| 20260506031516 | 35 | 194 | 6.1 | 7.8 | 0.00 | 0.01 | 0.00 | 88 | 1013.7 |
| 20260506030614 | 35 | 203 | 5.2 | 7.8 | 0.00 | 0.01 | 0.00 | 85 | 1013.6 |
| 20260506025631 | 36 | 251 | 2.6 | 5.2 | 0.00 | 0.01 | 0.00 | 85 | 1013.8 |
| 20260506024607 | 35 | 231 | 2.6 | 3.5 | 0.00 | 0.01 | 0.00 | 84 | 1013.9 |
| 20260506023604 | 36 | 252 | 2.6 | 3.5 | 0.00 | 0.01 | 0.00 | 83 | 1013.9 |
| 20260506022601 | 35 | 259 | 2.6 | 5.2 | 0.00 | 0.01 | 0.00 | 84 | 1014.0 |
| 20260506021618 | 36 | 256 | 1.7 | 3.5 | 0.00 | 0.01 | 0.00 | 85 | 1014.2 |
| 20260506020554 | 36 | 271 | 1.7 | 3.5 | 0.00 | 0.02 | 0.00 | 87 | 1014.1 |
| 20260506015551 | 36 | 312 | 3.5 | 7.0 | 0.00 | 0.04 | 0.00 | 88 | 1014.2 |
| 20260506014548 | 36 | 352 | 5.2 | 9.6 | 0.00 | 0.04 | 0.00 | 89 | 1014.6 |
| 20260506013545 | 36 | 340 | 6.1 | 9.6 | 0.00 | 0.05 | 0.00 | 88 | 1014.5 |
| 20260506012602 | 37 | 334 | 7.0 | 11.3 | 0.00 | 0.05 | 0.00 | 88 | 1014.6 |
| 20260506011539 | 36 | 325 | 2.6 | 5.2 | 0.00 | 0.05 | 0.00 | 89 | 1014.5 |
| 20260506010556 | 36 | 352 | 5.2 | 6.1 | 0.00 | 0.06 | 0.00 | 88 | 1014.4 |
| 20260506005553 | 35 | 5 | 3.5 | 7.0 | 0.00 | 0.06 | 0.00 | 87 | 1014.6 |
| 20260506004529 | 36 | 19 | 0.9 | 3.5 | 0.00 | 0.06 | 0.00 | 86 | 1014.3 |
| 20260506003526 | 36 | 339 | 0.9 | 5.2 | 0.00 | 0.06 | 0.00 | 85 | 1014.6 |
| 20260506002523 | 35 | 68 | 0.9 | 1.7 | 0.00 | 0.06 | 0.00 | 85 | 1014.2 |
| 20260506001520 | 35 | 45 | 1.7 | 1.7 | 0.00 | 0.06 | 0.00 | 84 | 1014.4 |
| 20260506000517 | 36 | 0 | 0.9 | 1.7 | 0.00 | 0.06 | 0.00 | 83 | 1014.5 |
| 20260505235634 | 36 | 350 | 1.7 | 3.5 | 0.00 | 0.06 | 0.00 | 84 | 1014.7 |
| 20260505234631 | 36 | 277 | 1.7 | 3.5 | 0.00 | 0.06 | 0.00 | 84 | 1014.7 |
| 20260505233607 | 37 | 244 | 3.5 | 6.1 | 0.00 | 0.06 | 0.00 | 85 | 1014.6 |
| 20260505232604 | 35 | 248 | 4.3 | 6.1 | 0.00 | 0.06 | 0.00 | 85 | 1014.8 |
| 20260505231601 | 36 | 244 | 4.3 | 6.1 | 0.00 | 0.06 | 0.00 | 82 | 1014.7 |
| 20260505230558 | 38 | 248 | 5.2 | 9.6 | 0.00 | 0.06 | 0.00 | 77 | 1014.8 |
| 20260505225555 | 39 | 262 | 5.2 | 9.6 | 0.00 | 0.06 | 0.06 | 72 | 1014.7 |
| 20260505224551 | 39 | 266 | 6.1 | 9.6 | 0.00 | 0.06 | 0.06 | 72 | 1014.8 |
| 20260505223548 | 39 | 272 | 3.5 | 7.8 | 0.00 | 0.06 | 0.06 | 75 | 1014.7 |
| 20260505222545 | 37 | 256 | 2.6 | 6.1 | 0.00 | 0.06 | 0.06 | 77 | 1014.8 |
| 20260505221542 | 39 | 272 | 4.3 | 7.0 | 0.00 | 0.06 | 0.06 | 73 | 1014.8 |
| 20260505220559 | 39 | 299 | 3.5 | 7.0 | 0.00 | 0.06 | 0.06 | 74 | 1014.7 |
| 20260505215535 | 39 | 285 | 5.2 | 7.8 | 0.00 | 0.06 | 0.06 | 74 | 1014.9 |
| 20260505214553 | 38 | 291 | 3.5 | 7.0 | 0.00 | 0.06 | 0.06 | 76 | 1014.8 |
| 20260505213549 | 38 | 283 | 3.5 | 6.1 | 0.00 | 0.06 | 0.06 | 77 | 1014.9 |
| 20260505212526 | 37 | 310 | 3.5 | 7.0 | 0.00 | 0.06 | 0.06 | 79 | 1014.9 |
| 20260505211523 | 37 | 327 | 4.3 | 7.0 | 0.00 | 0.06 | 0.06 | 81 | 1014.9 |
| 20260505210520 | 38 | 299 | 6.1 | 9.6 | 0.00 | 0.06 | 0.06 | 81 | 1015.1 |
| 20260505205517 | 38 | 293 | 4.3 | 7.0 | 0.00 | 0.06 | 0.06 | 83 | 1015.1 |
| 20260505204614 | 37 | 307 | 1.7 | 3.5 | 0.00 | 0.06 | 0.06 | 84 | 1015.0 |
| 20260505203611 | 37 | 345 | 2.6 | 5.2 | 0.00 | 0.06 | 0.06 | 84 | 1015.2 |
| 20260505202608 | 37 | 338 | 3.5 | 6.1 | 0.00 | 0.06 | 0.06 | 84 | 1015.1 |
| 20260505201604 | 37 | 353 | 6.1 | 9.6 | 0.00 | 0.06 | 0.06 | 85 | 1015.2 |
| 20260505200601 | 38 | 0 | 8.7 | 12.2 | 0.00 | 0.06 | 0.06 | 84 | 1015.1 |
| 20260505195558 | 38 | 348 | 8.7 | 12.2 | 0.00 | 0.06 | 0.06 | 83 | 1015.0 |
| 20260505194555 | 38 | 345 | 7.8 | 11.3 | 0.00 | 0.06 | 0.06 | 83 | 1015.1 |
| 20260505193552 | 39 | 338 | 7.8 | 15.6 | 0.00 | 0.06 | 0.06 | 75 | 1015.0 |
| 20260505192549 | 39 | 337 | 6.1 | 9.6 | 0.00 | 0.06 | 0.06 | 75 | 1014.9 |
| 20260505191545 | 39 | 337 | 4.3 | 6.1 | 0.00 | 0.06 | 0.06 | 76 | 1014.9 |
| 20260505190542 | 40 | 347 | 3.5 | 6.1 | 0.00 | 0.06 | 0.06 | 75 | 1015.0 |
| 20260505185539 | 40 | 326 | 4.3 | 7.0 | 0.00 | 0.06 | 0.06 | 75 | 1014.9 |
| 20260505184556 | 40 | 326 | 4.3 | 7.0 | 0.00 | 0.06 | 0.06 | 77 | 1014.9 |
| 20260505183553 | 39 | 345 | 5.2 | 9.6 | 0.00 | 0.06 | 0.06 | 79 | 1015.0 |
| 20260505182530 | 38 | 341 | 9.6 | 13.9 | 0.00 | 0.06 | 0.06 | 80 | 1015.2 |
| 20260505181527 | 38 | 335 | 14.8 | 20.9 | 0.00 | 0.06 | 0.06 | 81 | 1015.2 |
| 20260505180543 | 40 | 347 | 7.8 | 13.9 | 0.00 | 0.06 | 0.06 | 71 | 1015.0 |
| 20260505175520 | 40 | 327 | 7.8 | 13.9 | 0.00 | 0.06 | 0.06 | 71 | 1015.0 |
| 20260505174517 | 42 | 333 | 9.6 | 14.8 | 0.00 | 0.06 | 0.06 | 72 | 1015.0 |
| 20260505173614 | 42 | 318 | 9.6 | 15.6 | 0.00 | 0.06 | 0.06 | 73 | 1015.1 |
| 20260505172631 | 42 | 336 | 10.4 | 15.6 | 0.00 | 0.06 | 0.06 | 73 | 1015.0 |
| 20260505171607 | 41 | 353 | 11.3 | 17.4 | 0.00 | 0.06 | 0.06 | 69 | 1014.9 |
| 20260505170625 | 41 | 348 | 10.4 | 14.8 | 0.00 | 0.06 | 0.06 | 73 | 1015.0 |
| 20260505165601 | 40 | 342 | 9.6 | 13.9 | 0.00 | 0.06 | 0.06 | 75 | 1015.1 |
| 20260505164558 | 41 | 340 | 8.7 | 13.9 | 0.00 | 0.06 | 0.06 | 81 | 1015.1 |
| 20260505163555 | 40 | 349 | 13.0 | 17.4 | 0.00 | 0.06 | 0.06 | 79 | 1015.1 |
| 20260505162552 | 41 | 319 | 11.3 | 20.0 | 0.00 | 0.06 | 0.06 | 73 | 1015.0 |
| 20260505161549 | 42 | 326 | 7.8 | 13.0 | 0.00 | 0.06 | 0.06 | 74 | 1015.0 |
| 20260505160546 | 41 | 311 | 8.7 | 13.0 | 0.00 | 0.06 | 0.06 | 78 | 1015.1 |